sat.trackr.live / text

‹ back to catalog

STARLINK-34223

NORAD 64336 · 2025-124V

PAYLOAD ACTIVE UNKNOWN

§ Identity

Operator
Country
US
Launch date
2025-06-10
Launch site
AFETR
Launch vehicle
Mass (kg)
RCS (m²)

Purposes: comms

External: N2YO · Heavens-Above · Gunter

§ Orbital elements

Epoch: 2026-05-25T02:58:27.532128Z

Period
94.27 min
Inclination
43.0036°
Eccentricity
0.0001529
Mean motion
15.27600957 rev/d
Perigee alt
481.9 km
Apogee alt
484.0 km
Semi-major
6,861.1 km
B*
5.1923e-4
RAAN
46.2714°
Arg perigee
254.0267°
Mean anomaly
106.0416°
Rev number
5,351

§ Raw data

STARLINK-342231 64336U 25124V   26145.12392977  .00014062  00000+0  51923-3 0  99992 64336  43.0036  46.2714 0001529 254.0267 106.0416 15.27600957 53511

JSON: /api/v1/satellites/64336 · /tle

For live sub-satellite position, see the globe view (requires WebGL).

§ Visibility from observer

Set your observer location to see the next 7 days of passes ≥ 10°. The values pass through the URL so the page stays shareable.

No JS? Fill the form by hand. The geolocation button needs JavaScript.